Regional Weather Roundup
Issued by NWS

Home | Current Version | Previous Version | Graphics & Text | Print | Product List | Glossary On
Versions: 1 2 3 4 5 6 7 8 9 10 11 12 13 14 15 16 17 18 19 20 21 22 23 24 25 26 27 28 29 30 31 32 33 34 35 36 37 38 39 40 41 42 43 44 45 46 47 48 49 50
887
ASUS45 KCYS 030310
RWRWY

WYOMING REGIONAL WEATHER ROUNDUP
NATIONAL WEATHER SERVICE CHEYENNE WY
800 PM MST FRI DEC 02 2016

NOTE:  "FAIR" INDICATES FEW OR NO CLOUDS BELOW 12,000 FEET
WITH NO SIGNIFICANT WEATHER AND/OR OBSTRUCTIONS TO VISIBILITY.

WYZ001-030400-
YELLOWSTONE NATIONAL PARK

CITY           SKY/WX    TMP DP  RH WIND       PRES   REMARKS
LK YELLOWSTONE   N/A      8   6  92 VRB3      30.09F
W YELLOWSTONE  NOT AVBL

$$
WYZ002>013-054>058-071-098>099-030400-
NORTHERN WYOMING

CITY           SKY/WX    TMP DP  RH WIND       PRES   REMARKS
JACKSON        FAIR      12  10  92 SW8       30.15F WCI   1
CODY           FAIR      30   8  39 SW18G28   30.02F WCI  18
GREYBULL       FAIR      26  18  71 E6        30.08F WCI  19
WORLAND        FAIR      27  19  72 SE12      30.07F WCI  17
SHERIDAN       FAIR      20  14  77 CALM      30.03F
BUFFALO        FAIR      25  13  60 CALM      30.02F
GILLETTE       FAIR      26  21  81 S15       30.08F WCI  14
HULETT         FAIR      23  18  80 S6        30.10F WCI  16
NEWCASTLE      FAIR      21  18  86 CALM      30.15F

$$
WYZ014>020-022>026-101>103-030400-
CENTRAL WYOMING

CITY           SKY/WX    TMP DP  RH WIND       PRES   REMARKS
BIG PINEY      FAIR       8   3  80 N12       30.15S WCI  -7
PINEDALE       FAIR       9   3  78 NW7       30.14F WCI  -3
DUBOIS         FAIR      14   5  67 NW16G23   30.04F WCI  -2
LANDER         FAIR      19  11  70 SE3       30.08F
RIVERTON       FAIR      22  14  71 SW3       30.09F
CASPER         FAIR      19  13  77 S10       30.12F WCI   7
DOUGLAS        CLOUDY    22  20  92 CALM      30.14F

$$
WYZ021-027>030-104>119-030400-
SOUTHERN WYOMING

CITY           SKY/WX    TMP DP  RH WIND       PRES   REMARKS
EVANSTON       FAIR      18   9  68 S3        30.17F
FORT BRIDGER   CLEAR     14   9  79 SW9       30.20S WCI   2
ROCK SPRINGS   FAIR      12   9  87 SW9       30.16S WCI   0
DIXON          FAIR       9   5  86 E3        30.19R
RAWLINS        FAIR       5   0  79 CALM      30.13S
SARATOGA       CLOUDY    14  14 100 SW8       30.13R WCI   3
LARAMIE        FAIR      14  11  87 CALM      30.07F
CHEYENNE       CLOUDY    25  22  88 S9        30.13S WCI  15
TORRINGTON     CLOUDY    29  22  75 SW6       30.17F WCI  23
PINE BLUFFS    CLOUDY    27  27 100 SW5       30.17F WCI  21

$$




USA.gov is the U.S. government's official web portal to all federal, state and local government web resources and services.